Regional Weather Roundup
Issued by NWS Northern Indiana

Home | Current Version | Previous Version | Graphics & Text | Print | Product List | Glossary On
Versions: 1 2 3 4 5 6 7 8 9 10 11 12 13 14 15 16 17 18 19 20 21 22 23 24 25 26 27 28 29 30 31 32 33 34 35 36 37 38 39 40 41 42 43 44 45 46 47 48 49 50
000
ASUS43 KIWX 030300
RWRIWX

KIWX WEATHER ROUNDUP
NATIONAL WEATHER SERVICE NORTHERN INDIANA
1100 PM EDT THU JUL 02 2015

NOTE: "FAIR" INDICATES FEW OR NO CLOUDS BELOW 12,000 FEET WITH NO
SIGNIFICANT WEATHER AND/OR OBSTRUCTIONS TO VISIBILITY.

* THESE STATIONS ARE NOT UNDER NWS QUALITY CONTROL. THEY ALSO MAY NOT
  REPORT WEATHER SUCH AS PRECIPITATION OR FOG.

INZ001>027-030400-
NORTHERN INDIANA

CITY           SKY/WX    TMP DP  RH WIND       PRES   REMARKS
GARY*          CLOUDY    61  59  94 N9        29.99R
KNOX*          MOCLDY    59  59 100 N7        29.96R
SOUTH BEND     PTCLDY    61  57  87 N7        29.98R
GOSHEN         PTCLDY    64  55  72 NE7       29.97R
MONTICELLO*    CLOUDY    67  60  78 NE7       29.94R
ANGOLA*          N/A     61  50  67 CALM      29.99R
FORT WAYNE     MOCLDY    64  55  72 E9        29.98R
PERU/GRISSOM   MOCLDY    66  59  78 NE5       29.94R

$$
INZ028>050-030400-
CENTRAL INDIANA

CITY           SKY/WX    TMP DP  RH WIND       PRES   REMARKS
LAFAYETTE      CLOUDY    69  60  73 NE12      29.93R
KOKOMO*        PTCLDY    64  57  77 E7        29.95R
MUNCIE*        MOCLDY    68  59  73 E13       29.95R
INDIANAPOLIS   CLOUDY    72  62  71 NE12      29.89R

$$
MIZ043>046-050>051-056>058-064>065-071>073-077>080-030400-
SOUTHWEST LOWER MICHIGAN

CITY           SKY/WX    TMP DP  RH WIND       PRES   REMARKS
BATTLE CREEK   CLEAR     63  54  72 NE5       30.01R
BENTON HARBOR  PTCLDY    57  49  74 CALM      29.98S
COLDWATER*     CLEAR     61  53  73 NE3       29.99S
HILLSDALE*     CLEAR     60  56  89 E3        30.01R
HOLLAND        CLEAR     59  53  80 CALM      30.01R
GRAND RAPIDS   CLEAR     61  51  70 E3        30.01R
KALAMAZOO      CLEAR     64  53  67 NE3       30.01R
STURGIS*       PTCLDY    63  54  72 NE5       29.98S
THREE RIVERS*  FAIR      62  53  73 NE3       29.99S

$$
OHZ001>008-015>018-024>025-030400-
NORTHWEST OHIO

CITY           SKY/WX    TMP DP  RH WIND       PRES   REMARKS
DEFIANCE       PTCLDY    63  55  75 E3        29.99R
FINDLAY        PTCLDY    64  55  72 NE6       29.98R
TOLEDO EXPRESS CLEAR     58  55  90 CALM      29.99R
TOLEDO METCALF CLEAR     64  56  75 NE3       30.00R
LIMA           PTCLDY    62  55  77 E6        29.98R

$$
AND FOR LAKE MICHIGAN COASTAL AND OPEN LAKE BUOY OBSERVATIONS

STATION/POSITION TEMP    WIND        PRES    VSBY  WAVE
                 AIR SEA DIR/SP/G                  HT/PER
                 (F)     (DEG/KT/KT) (MB)    (MI)  (FT/S)
CALUMET HARBOR    59     350/  7/  9   N/A
MICHIGAN CITY     59      30/ 14/ 16   N/A
BURNS HARBOR      63      50/ 16/ 19 1015.2F
SAINT JOSEPH      60      20/  7/ 13   N/A
4 MI NW BRIDGMAN  59 63                N/A           3/ 4
MICHIGAN CITY     62 64   60/ 16/ 19   N/A           4/ 5

$$
&&



USA.gov is the U.S. government's official web portal to all federal, state and local government web resources and services.